Weather History for Albany, GA

Change the Weather History Date:

Wednesday, February 12, 2014

  Actual Average Record
Temperature  
Mean Temperature 39 °F 52 °F  
Max Temperature 42 °F 64 °F 81 °F (1932)
Min Temperature 35 °F 40 °F 19 °F (1981)
Degree Days  
Heating Degree Days 26 13  
Month to date heating degree days 146 169  
Since 1 July heating degree days 1416 1373  
Cooling Degree Days 0 0  
Month to date cooling degree days 1 0  
Year to date cooling degree days 1 4  
Moisture  
Dew Point 36 °F    
Average Humidity 96    
Maximum Humidity 100    
Minimum Humidity 92    
Precipitation  
Precipitation 2.25 in 0.13 in 2.25 in (2014)
Month to date precipitation 2.80 1.59  
Year to date precipitation 4.45 6.41  
Sea Level Pressure  
Sea Level Pressure 29.99 in    
Wind  
Wind Speed 12 mph (NE)    
Max Wind Speed 24 mph    
Max Gust Speed 30 mph    
Visibility 4 miles    
Events Rain , Thunderstorm    
T = Trace of Precipitation, MM = Missing Value Source: NWS Daily Summary

Daily Weather History Graph

Daily Weather History Graph

Search for Another Location

Airport:

Trip Planner

Search our weather history database for the weather conditions in past years. The results will help you decide how hot, cold, wet, or windy it might be!

Date:

Astronomy

Feb. 12, 2014 Rise Set
Actual Time 7:21 AM EST 6:21 PM EST
Civil Twilight 6:56 AM EST 6:46 PM EST
Nautical Twilight 6:27 AM EST 7:14 PM EST
Astronomical Twilight 5:59 AM EST 7:43 PM EST
Moon 4:36 PM EST (2/12) 5:34 AM EST (2/12)
Length of Visible Light 11h 50m
Length of Day
11h 00m
Waxing Gibbous, 95% of the Moon is Illuminated
Feb 12
Waxing Gibbous
Feb 14
Full
Feb 22
Last Quarter
Mar 1
New
Mar 8
First Quarter

Hourly Weather History & Observations

Time (EST) Temp. Windchill Dew Point Humidity Pressure Visibility Wind Dir Wind Speed Gust Speed Precip Events Conditions
12:53 AM 41.0 °F 33.5 °F 37.9 °F 89% 30.16 in 10.0 mi East 13.8 mph - 0.00 in Rain Light Rain
1:53 AM 41.0 °F 33.9 °F 39.0 °F 93% 30.13 in 4.0 mi ENE 12.7 mph - 0.00 in Rain Light Rain
2:03 AM 39.2 °F 33.0 °F 39.2 °F 100% 30.13 in 5.0 mi ENE 9.2 mph - 0.00 in Rain Light Rain
2:53 AM 39.9 °F 31.8 °F 37.9 °F 93% 30.11 in 3.0 mi ENE 15.0 mph - 0.02 in Rain Rain
3:23 AM 39.2 °F 30.2 °F 37.4 °F 93% 30.10 in 2.0 mi NE 17.3 mph 23.0 mph 0.07 in Rain Heavy Rain
3:35 AM 39.2 °F 31.2 °F 37.4 °F 93% 30.10 in 3.0 mi NE 13.8 mph 20.7 mph 0.10 in Rain Heavy Rain
3:53 AM 39.0 °F 30.3 °F 37.9 °F 96% 30.09 in 3.0 mi ENE 16.1 mph - 0.18 in Rain Rain
3:59 AM 39.2 °F 30.5 °F 37.4 °F 93% 30.09 in 2.5 mi ENE 16.1 mph - 0.03 in Rain Heavy Rain
4:05 AM 39.2 °F 30.8 °F 37.4 °F 93% 30.08 in 2.5 mi ENE 15.0 mph 23.0 mph 0.06 in Rain Heavy Rain
4:07 AM 39.2 °F 30.2 °F 37.4 °F 93% 30.08 in 3.0 mi ENE 17.3 mph - 0.07 in Rain Heavy Rain
4:18 AM 39.2 °F 33.0 °F 37.4 °F 93% 30.10 in 3.0 mi NE 9.2 mph 20.7 mph 0.12 in Rain Heavy Rain
4:25 AM 39.2 °F 31.6 °F 37.4 °F 93% 30.08 in 2.5 mi ENE 12.7 mph - 0.16 in Rain Heavy Rain
4:33 AM 39.2 °F 31.2 °F 37.4 °F 93% 30.07 in 3.0 mi ENE 13.8 mph - 0.19 in Rain Heavy Rain
4:53 AM 39.0 °F 31.0 °F 37.0 °F 93% 30.08 in 4.0 mi ENE 13.8 mph 23.0 mph 0.25 in Rain Heavy Rain
5:10 AM 39.2 °F 32.0 °F 37.4 °F 93% 30.08 in 4.0 mi ENE 11.5 mph 21.9 mph 0.05 in Rain Rain
5:16 AM 39.2 °F 33.0 °F 37.4 °F 93% 30.07 in 3.0 mi ENE 9.2 mph 21.9 mph 0.07 in Rain Heavy Rain
5:23 AM 39.2 °F 31.6 °F 37.4 °F 93% 30.06 in 3.0 mi East 12.7 mph - 0.10 in Rain Heavy Rain
5:30 AM 37.4 °F 30.3 °F 37.4 °F 100% 30.06 in 2.0 mi ENE 10.4 mph - 0.16 in Rain Heavy Rain
5:42 AM 37.4 °F 28.9 °F 37.4 °F 100% 30.06 in 3.0 mi East 13.8 mph 20.7 mph 0.21 in Rain Heavy Rain
5:51 AM 37.4 °F 29.3 °F 37.4 °F 100% 30.03 in 2.5 mi East 12.7 mph - 0.28 in Rain Heavy Rain
5:53 AM 37.9 °F 29.2 °F 37.0 °F 97% 30.04 in 2.5 mi East 15.0 mph - 0.28 in Rain Heavy Rain
6:01 AM 37.4 °F 28.5 °F 37.4 °F 100% 30.03 in 3.0 mi East 15.0 mph 23.0 mph 0.03 in Rain Rain
6:53 AM 37.9 °F 33.5 °F 37.0 °F 97% 30.14 in 4.0 mi Variable 5.8 mph - 0.11 in Rain Rain
7:23 AM 37.4 °F 28.9 °F 37.4 °F 100% 30.17 in 7.0 mi NNW 13.8 mph - 0.04 in Rain Light Rain
7:31 AM 37.4 °F 30.8 °F 37.4 °F 100% 30.17 in 3.0 mi North 9.2 mph - 0.06 in Rain Rain
7:37 AM 37.4 °F 30.8 °F 37.4 °F 100% 30.18 in 4.0 mi North 9.2 mph 17.3 mph 0.08 in Rain Light Rain
7:45 AM 37.4 °F 28.2 °F 37.4 °F 100% 30.21 in 1.8 mi NNW 16.1 mph - 0.17 in Rain Heavy Rain
7:53 AM 37.9 °F 30.5 °F 36.0 °F 93% 30.18 in 2.0 mi NNE 11.5 mph 19.6 mph 0.22 in Rain Heavy Rain
8:11 AM 37.4 °F 27.8 °F 35.6 °F 93% 30.15 in 1.8 mi ENE 17.3 mph 21.9 mph 0.10 in Rain Heavy Rain
8:30 AM 37.4 °F 28.5 °F 35.6 °F 93% 30.12 in 1.5 mi ENE 15.0 mph 26.5 mph 0.20 in Rain Heavy Rain
8:33 AM 37.4 °F 28.5 °F 35.6 °F 93% 30.13 in 1.8 mi NE 15.0 mph 26.5 mph 0.21 in Rain , Thunderstorm Heavy Thunderstorms and Rain
8:53 AM 37.0 °F 27.4 °F 35.1 °F 93% 30.09 in 2.5 mi East 17.3 mph - 0.30 in Rain Heavy Rain
9:37 AM 37.4 °F 30.8 °F 35.6 °F 93% 30.12 in 1.8 mi ENE 9.2 mph 20.7 mph 0.18 in Rain Heavy Rain
10:25 AM 37.4 °F 28.2 °F 35.6 °F 93% 30.08 in 2.0 mi East 16.1 mph - 0.19 in Rain Heavy Rain
10:53 AM 37.0 °F 26.2 °F 35.1 °F 93% 30.00 in 1.8 mi East 21.9 mph 29.9 mph 0.36 in Rain Heavy Rain
11:08 AM 37.4 °F 27.2 °F 35.6 °F 93% 30.01 in 2.5 mi East 19.6 mph 29.9 mph 0.06 in Rain Heavy Rain
11:22 AM 37.4 °F 28.5 °F 35.6 °F 93% 30.01 in 4.0 mi East 15.0 mph 27.6 mph 0.09 in Rain Rain
11:53 AM 39.0 °F 32.3 °F 37.9 °F 96% 30.02 in 7.0 mi ENE 10.4 mph - 0.09 in Rain Light Rain
11:57 AM 39.2 °F 32.5 °F 37.4 °F 93% 30.02 in 4.0 mi NE 10.4 mph - 0.01 in Rain Rain
12:53 PM 37.9 °F 30.0 °F 37.0 °F 97% 29.97 in 10.0 mi NE 12.7 mph - 0.01 in   Overcast
1:53 PM 39.0 °F 32.3 °F 37.9 °F 96% 29.92 in 10.0 mi NE 10.4 mph - N/A   Overcast
2:53 PM 39.0 °F 30.3 °F 37.0 °F 93% 29.88 in 10.0 mi East 16.1 mph - N/A   Overcast
3:53 PM 37.9 °F 28.9 °F 36.0 °F 93% 29.85 in 10.0 mi East 16.1 mph - N/A   Overcast
4:53 PM 37.9 °F 30.0 °F 37.0 °F 97% 29.83 in 9.0 mi ENE 12.7 mph - 0.00 in Rain Light Rain
5:22 PM 37.4 °F 30.8 °F 35.6 °F 93% 29.83 in 2.0 mi NE 9.2 mph - 0.01 in Rain Rain
5:53 PM 37.0 °F 29.8 °F 36.0 °F 96% 29.84 in 2.0 mi ENE 10.4 mph - 0.02 in Rain Light Rain
6:53 PM 37.0 °F 31.0 °F 36.0 °F 96% 29.82 in 2.0 mi NE 8.1 mph - 0.00 in Rain Light Rain
7:00 PM 37.4 °F 32.8 °F 35.6 °F 93% 29.82 in 3.0 mi NE 5.8 mph - 0.01 in Rain Rain
7:10 PM 37.4 °F 32.8 °F 35.6 °F 93% 29.82 in 2.5 mi NNE 5.8 mph - 0.02 in Rain Light Rain
7:19 PM 35.6 °F 29.2 °F 35.6 °F 100% 29.82 in 4.0 mi NNE 8.1 mph - 0.02 in Rain Light Rain
7:53 PM 36.0 °F 30.3 °F 35.1 °F 97% 29.82 in 5.0 mi NNE 6.9 mph - 0.02 in Rain Light Rain
8:25 PM 35.6 °F 30.7 °F 35.6 °F 100% 29.80 in 6.0 mi NNE 5.8 mph - 0.00 in Rain Light Rain
8:33 PM 35.6 °F 28.6 °F 35.6 °F 100% 29.80 in 6.0 mi NNE 9.2 mph - 0.00 in   Overcast
8:49 PM 35.6 °F 31.7 °F 35.6 °F 100% 29.82 in 2.5 mi Variable 4.6 mph - 0.06 in Rain , Thunderstorm Light Rain
8:53 PM 36.0 °F 31.1 °F 35.1 °F 97% 29.82 in 5.0 mi NE 5.8 mph - 0.06 in Rain , Thunderstorm Light Rain
9:10 PM 35.6 °F 28.6 °F 35.6 °F 100% 29.81 in 7.0 mi NNE 9.2 mph - 0.00 in Rain Light Rain
9:42 PM 35.6 °F 29.2 °F 33.8 °F 93% 29.82 in 2.0 mi North 8.1 mph 17.3 mph N/A Rain Heavy Rain
9:51 PM 35.6 °F 29.9 °F 33.8 °F 93% 29.82 in 2.5 mi North 6.9 mph - N/A Rain Rain
9:53 PM 36.0 °F 29.6 °F 34.0 °F 93% 29.82 in 3.0 mi North 8.1 mph - N/A Rain Light Rain
10:08 PM 35.6 °F 28.6 °F 33.8 °F 93% 29.82 in 6.0 mi North 9.2 mph - 0.00 in Rain Light Rain
10:21 PM 35.6 °F 30.7 °F 33.8 °F 93% 29.82 in 6.0 mi North 5.8 mph - 0.00 in Rain Light Rain
10:53 PM 35.1 °F 29.3 °F 34.0 °F 96% 29.81 in 5.0 mi North 6.9 mph - 0.00 in   Overcast
11:19 PM 35.6 °F 28.0 °F 33.8 °F 93% 29.78 in 3.0 mi ENE 10.4 mph - 0.00 in Rain Light Rain
11:26 PM 35.6 °F 29.9 °F 33.8 °F 93% 29.77 in 5.0 mi NE 6.9 mph - 0.00 in Rain Light Rain
11:53 PM 35.1 °F 30.1 °F 34.0 °F 96% 29.78 in 8.0 mi North 5.8 mph - 0.00 in   Overcast